Location: Unspecified
(42.9300°N, 71.1866°W)
Time: 11:17:12
(UTC-05:00)

GENESIS II - Visible Passes

Search period start: 04 December 2016 00:00
Search period end: 14 December 2016 00:00
Orbit: 486 x 551 km, 64.5° (Epoch: 03 December)

Date Brightness Start Highest point End Pass type
(mag) Time Alt. Az. Time Alt. Az. Time Alt. Az.
09 Dec 6.6 17:43:28 10° N 17:43:51 11° NNE 17:43:51 11° NNE visible
10 Dec 6.3 17:28:35 10° N 17:29:55 13° NNE 17:29:55 13° NNE visible
11 Dec 6.1 17:13:43 10° N 17:15:55 14° NE 17:16:08 14° NE visible
11 Dec 6.6 18:50:12 10° NW 18:51:13 17° NW 18:51:13 17° NW visible
12 Dec 6.1 16:58:50 10° N 17:01:08 14° NE 17:02:35 12° ENE visible
12 Dec 5.6 18:35:23 10° NW 18:37:42 33° NW 18:37:42 33° NW visible
13 Dec 6.0 16:43:57 10° N 16:46:21 15° NE 16:48:42 10° ENE visible
13 Dec 4.3 18:20:35 10° NW 18:24:31 77° WSW 18:24:31 77° WSW visible
